This demonstration page uses our WeatherBlox Daily Observations layout. Learn more.

Left ArrowRight Arrow

39.29038, -76.61219

Hourly Observations for January 25, 2015

Temp ( °F °C ) Dew Point ( °F °C ) Humidity (%) Winds ( mph kmh ) Pressure ( in mb ) Visibility ( mi km ) Precip ( " mm )
12:54 am 00:54 undefined 38 3.3 26 -3.3 62 62 undefined N/A 29.66 1005 N/A 0.00 0.00
1:54 am 01:54 undefined 38 3.3 26 -3.3 62 62 undefined N/A 29.70 1006 N/A 0.00 0.00
2:54 am 02:54 undefined 37 2.8 27 -2.8 67 67 undefined N/A 29.71 1006 N/A 0.00 0.00
3:54 am 03:54 undefined 36 2.2 27 -2.8 70 70 undefined N/A 29.72 1006 N/A 0.00 0.00
4:54 am 04:54 undefined 37 2.8 27 -2.8 67 67 undefined N/A 29.75 1007 N/A 0.00 0.00
5:54 am 05:54 undefined 37 2.8 27 -2.8 67 67 undefined N/A 29.78 1008 N/A 0.00 0.00
6:54 am 06:54 undefined 37 2.8 28 -2.2 70 70 undefined N/A 29.81 1009 N/A 0.00 0.00
7:54 am 07:54 undefined 39 3.9 28 -2.2 65 65 undefined N/A 29.82 1010 N/A 0.00 0.00
8:54 am 08:54 undefined 40 4.4 28 -2.2 63 63 undefined N/A 29.83 1010 N/A 0.00 0.00
9:54 am 09:54 undefined 41 5 27 -2.8 57 57 undefined N/A 29.85 1011 N/A 0.00 0.00
10:54 am 10:54 undefined 46 7.8 28 -2.2 50 50 undefined N/A 29.87 1012 N/A 0.00 0.00
11:54 am 11:54 undefined 48 8.9 30 -1.1 50 50 undefined N/A 29.84 1011 N/A 0.00 0.00
12:54 pm 12:54 undefined 47 8.3 30 -1.1 52 52 undefined N/A 29.83 1010 N/A 0.00 0.00
2:54 pm 14:54 undefined 49 9.4 30 -1.1 48 48 undefined N/A 29.81 1010 N/A 0.00 0.00
3:54 pm 15:54 undefined 48 8.9 29 -1.7 48 48 undefined N/A 29.82 1010 N/A 0.00 0.00
4:54 pm 16:54 undefined 48 8.9 30 -1.1 50 50 undefined N/A 29.83 1010 N/A 0.00 0.00
5:54 pm 17:54 undefined 47 8.3 30 -1.1 52 52 undefined N/A 29.85 1011 N/A 0.00 0.00
6:54 pm 18:54 undefined 44 6.7 33 0.6 65 65 undefined N/A 29.86 1011 N/A 0.00 0.00
7:54 pm 19:54 undefined 45 7.2 33 0.6 63 63 undefined N/A 29.87 1011 N/A 0.00 0.00
8:54 pm 20:54 undefined 44 6.7 33 0.6 65 65 undefined N/A 29.88 1012 N/A 0.00 0.00
9:54 pm 21:54 undefined 44 6.7 32 0 63 63 undefined N/A 29.88 1012 N/A 0.00 0.00
10:54 pm 22:54 undefined 42 5.6 33 0.6 71 71 undefined N/A 29.86 1011 N/A 0.00 0.00
11:54 pm 23:54 undefined 41 5 32 0 70 70 undefined N/A 29.88 1012 N/A 0.00 0.00

Powered by AerisWeather